Wind_Speed
13 14 16 16 17 18 20 21 21 21 20 20 20 19 19 20 23 24 24 23 22 22 23 22 22 23 22 21 21 21 22 22 22 23 24 24 24 22 21 22 21 21 20 19 19 20 19 19 19 19 19 18 17 18 19 19 19 20 21 20 20 20 19 19 18 15 10 8 10 11 10 11 11 10 10 9 8 9 10 11 12 11 11 12 12
13 13 14 16 17 19 22 23 24 24 23 21 20 20 20 21 24 26 27 25 24 24 23 22 24 24 23 22 21 21 21 21 21 23 24 23 23 21 20 21 21 21 21 20 21 21 21 20 19 19 20 19 19 19 19 20 20 21 22 22 21 21 21 20 19 17 14 12 11 11 12 12 12 11 10 8 7 7 9 11 12 11 11 12 12
13 12 14 16 18 21 24 24 25 27 25 23 22 21 22 23 25 27 28 27 25 25 24 24 25 24 22 22 22 21 21 21 21 21 22 22 22 21 20 21 21 20 20 20 21 21 20 19 19 19 20 21 21 21 20 20 20 20 22 23 22 22 21 21 20 18 17 16 14 13 12 13 14 13 11 9 8 8 9 10 11 11 11 12 12
13 13 15 17 17 20 23 22 22 26 27 25 22 22 23 23 24 25 27 27 26 25 24 24 24 23 23 22 22 22 21 21 20 19 19 20 21 20 21 21 20 19 19 20 20 20 20 19 19 19 20 21 22 22 22 21 20 20 22 23 22 22 21 20 20 18 17 17 16 16 15 14 14 14 13 12 10 10 10 11 12 12 11 12 12
13 15 17 17 17 18 19 19 19 22 25 24 21 22 23 23 24 25 26 28 28 25 23 24 24 24 24 23 22 22 21 20 19 19 18 18 19 19 20 20 19 18 18 19 19 18 19 19 19 19 20 21 22 22 22 23 21 21 22 23 22 22 22 21 19 19 19 18 17 19 19 18 17 16 16 14 12 12 12 12 13 13 12 13 13
14 15 16 17 17 18 18 17 17 18 21 21 19 19 23 25 26 26 27 28 27 24 25 26 25 25 24 23 22 21 21 20 19 18 18 18 18 18 18 18 17 17 18 18 17 17 18 19 18 19 20 21 21 21 21 22 22 21 22 23 22 23 24 24 21 20 21 21 19 19 20 20 19 17 17 17 15 14 13 13 13 13 13 14 13
16 15 15 16 17 17 18 18 17 18 20 20 17 16 20 24 26 26 27 28 26 25 26 24 22 23 23 22 22 21 20 20 19 18 18 19 19 18 18 18 17 17 17 17 17 17 18 18 17 18 19 20 19 20 21 22 22 22 22 23 23 23 24 26 24 21 23 22 19 17 17 20 20 18 18 18 18 17 16 15 15 15 15 15 15
19 17 16 16 16 16 17 17 16 17 19 19 17 15 17 23 25 26 27 27 26 27 25 19 17 20 22 22 22 21 20 20 19 18 18 18 19 18 18 19 18 17 17 17 18 17 17 16 16 16 17 17 17 17 18 20 21 21 22 21 21 21 22 23 24 23 22 21 18 16 17 20 21 20 19 19 20 20 18 17 17 16 17 18 18
23 21 18 17 16 16 17 17 16 16 17 19 18 16 17 22 25 26 28 28 27 26 23 19 19 20 22 22 22 21 20 20 19 18 17 18 18 19 19 19 18 17 17 18 18 17 16 15 14 14 14 14 15 15 16 19 20 21 21 20 19 20 21 21 23 23 21 20 19 17 19 21 22 22 20 19 18 17 16 17 18 18 18 20 20
27 25 22 19 18 17 17 16 16 16 17 19 20 18 19 23 26 27 29 29 27 25 23 22 21 22 24 24 23 21 20 20 19 16 16 17 17 18 19 19 18 17 18 19 18 16 16 15 13 12 12 12 13 14 15 17 19 21 22 19 18 20 20 20 22 22 20 19 18 18 21 23 22 21 20 17 15 15 15 17 19 19 20 22 22
28 27 25 23 21 19 19 18 16 15 16 18 21 20 20 25 28 29 30 30 28 25 24 24 24 24 26 26 24 22 21 20 18 16 15 16 17 18 18 18 18 17 17 18 17 16 16 15 13 11 12 13 14 14 15 18 19 20 20 17 16 18 20 19 18 21 21 19 18 18 21 23 22 21 20 18 16 16 16 18 19 21 22 24 24
27 28 28 27 25 22 20 20 18 16 17 18 21 22 22 27 30 30 31 31 29 27 26 26 26 26 28 28 26 24 22 20 18 16 16 16 17 17 17 17 17 17 17 17 17 17 18 16 13 12 12 14 15 16 16 18 19 18 16 15 14 16 20 20 17 18 20 19 17 18 21 23 22 22 21 20 19 19 18 19 21 23 24 26 27
27 29 30 29 28 25 21 19 18 18 18 18 20 23 25 28 31 31 31 31 30 30 29 28 27 28 30 29 28 26 24 21 19 18 17 17 17 17 17 16 16 16 17 17 18 18 18 17 14 13 12 12 13 15 14 14 16 18 17 18 15 13 15 18 17 17 17 17 18 19 21 22 21 21 21 21 20 20 20 21 21 22 23 23 23
26 28 31 33 31 29 24 19 18 18 18 17 19 24 27 28 30 32 32 32 32 32 31 30 30 31 31 30 28 27 25 23 21 19 19 18 18 18 18 17 16 16 16 16 18 19 19 17 16 14 12 11 11 12 11 11 14 16 16 16 15 12 12 13 14 14 15 16 18 18 19 19 19 18 18 18 18 18 18 19 18 18 19 19 19
25 26 29 33 35 33 28 22 18 17 17 17 18 23 28 28 29 31 33 34 33 34 33 33 33 32 30 29 29 27 26 25 23 21 20 20 19 18 19 18 16 16 16 15 16 18 18 18 18 16 13 12 11 11 11 11 11 12 12 11 11 13 13 11 11 12 12 14 15 15 15 16 16 16 15 16 17 17 17 17 17 17 18 18 18
26 26 28 31 35 36 31 24 19 17 17 15 14 21 27 28 28 32 35 35 34 36 36 36 35 33 31 29 29 28 27 26 25 23 22 22 21 20 20 19 17 17 17 16 15 16 17 18 18 16 13 12 12 11 12 12 10 10 10 10 11 14 12 9 10 11 12 13 14 14 15 15 15 16 16 17 18 19 19 18 18 19 20 20 19
26 27 28 29 32 36 34 27 19 15 15 13 14 21 28 30 29 32 37 36 35 36 36 35 34 32 31 30 29 28 28 26 25 24 24 23 23 22 21 20 19 18 18 17 16 16 17 18 17 16 14 13 13 13 13 13 12 11 10 10 11 13 11 9 11 12 12 12 13 14 15 15 16 16 17 17 18 19 18 18 18 20 21 21 21
26 26 26 26 27 31 35 33 24 14 9 9 15 19 25 29 30 33 37 39 37 36 36 35 35 33 31 30 29 29 29 27 25 24 24 24 24 23 23 22 21 20 19 18 18 18 19 18 18 17 16 15 15 14 14 12 11 10 10 10 10 9 9 9 10 11 12 13 13 13 13 14 15 16 16 17 18 20 20 20 20 21 21 22 24
27 25 25 23 22 24 29 33 32 22 9 3 10 14 19 27 32 35 38 39 39 39 39 38 36 34 33 32 31 30 29 27 25 24 23 22 22 22 23 24 23 22 20 19 19 19 19 19 18 18 17 17 16 15 14 12 11 11 10 10 10 9 8 8 8 9 11 11 11 12 12 13 15 16 17 19 20 21 22 23 24 25 25 25 26
26 24 22 21 20 20 23 28 32 30 21 11 7 9 13 21 31 36 38 40 41 40 39 38 38 35 33 32 30 29 27 25 22 21 22 21 20 19 20 21 22 22 21 20 19 19 19 18 18 18 17 17 16 14 13 12 12 11 11 11 10 10 10 10 10 10 10 11 11 12 13 14 15 17 18 20 21 22 23 23 24 25 25 25 25
26 24 22 21 19 20 20 21 25 29 29 23 15 12 12 16 25 33 36 39 42 41 38 37 38 35 33 31 29 26 24 22 20 18 18 17 17 17 17 17 18 19 20 19 19 19 19 18 18 17 17 16 16 15 14 14 14 13 12 12 12 12 12 12 12 12 13 13 14 15 16 17 18 18 19 20 20 21 21 22 23 23 23 24 24
25 25 25 23 22 21 21 18 17 19 24 27 26 22 18 18 22 28 32 34 37 39 35 32 32 31 30 28 27 25 23 23 21 19 18 17 15 15 15 15 15 15 15 17 18 18 19 20 19 18 17 16 16 15 14 15 15 14 12 13 13 14 14 14 14 15 16 16 17 17 18 18 18 18 19 19 20 20 21 21 22 22 23 23 24
23 25 25 25 23 22 22 20 16 14 15 19 23 25 22 20 19 22 25 27 29 31 30 26 24 25 25 25 24 23 22 22 20 19 19 19 17 15 15 15 16 15 15 17 18 18 19 19 18 17 16 16 16 17 17 17 15 12 12 12 13 13 14 14 15 15 16 17 17 17 18 18 19 20 20 20 21 21 21 21 21 21 20 21 22
20 23 25 25 24 22 21 21 20 17 14 12 13 18 21 20 19 19 20 22 24 25 25 23 21 22 22 22 21 20 19 19 18 18 18 18 18 17 17 17 18 18 18 18 18 18 18 16 14 14 14 15 15 15 14 13 11 10 11 11 11 12 12 13 14 15 15 16 16 17 17 18 18 18 19 19 19 19 18 19 19 19 20 20 21
18 20 23 25 24 22 19 20 20 20 19 16 13 14 17 18 18 18 18 18 20 22 23 21 20 20 20 19 18 17 15 15 14 14 14 15 16 17 17 17 18 18 17 17 17 17 16 14 12 12 13 13 12 10 8 8 9 9 10 11 11 12 12 13 14 14 14 14 14 14 14 14 14 15 16 16 17 17 18 18 18 19 20 20 19
18 19 21 23 24 23 20 18 17 17 19 19 18 17 16 15 15 14 14 14 13 14 16 17 16 15 15 15 15 13 11 10 9 8 9 11 13 14 16 16 15 14 13 14 14 13 12 11 11 10 9 8 8 7 8 8 8 7 8 9 10 11 11 11 11 11 11 11 11 11 12 13 13 14 15 16 18 19 19 20 20 20 20 20 19
19 19 20 20 21 23 23 20 17 15 15 15 16 16 16 16 15 14 14 14 13 11 11 12 12 12 12 12 12 11 10 9 8 7 6 5 6 7 9 10 10 10 10 10 10 10 9 9 8 7 6 7 9 11 10 9 8 8 8 9 9 9 9 9 10 10 10 10 10 11 12 13 14 15 17 18 19 19 20 20 19 19 19 19 19
18 19 19 19 18 20 22 22 21 19 16 14 14 14 14 13 13 14 13 12 13 14 14 13 13 12 13 13 12 11 10 9 8 8 6 4 3 3 3 3 3 4 4 5 5 5 5 5 5 6 9 11 12 11 10 9 9 9 9 9 9 9 9 9 9 9 10 11 12 13 13 14 16 16 17 17 16 16 16 17 17 17 17 17 18
16 18 19 18 17 16 18 20 21 21 19 17 16 15 15 13 12 12 12 10 9 10 12 13 13 11 10 11 10 10 9 8 7 6 5 3 2 3 3 4 4 5 6 6 6 7 8 8 8 8 8 8 8 7 7 7 8 8 8 9 8 8 8 8 9 9 10 11 12 13 14 14 14 14 13 12 12 13 13 14 15 15 15 16 16
15 18 19 18 16 14 14 15 17 18 19 19 18 16 16 16 15 13 12 10 8 7 7 7 7 7 6 6 6 6 6 5 4 3 2 3 3 4 5 6 8 10 11 11 11 11 11 11 9 8 7 6 6 5 5 5 5 5 5 5 5 6 6 7 7 8 9 10 11 11 11 10 10 9 9 9 10 10 11 12 13 14 14 14 14
14 17 18 18 16 14 13 12 13 14 15 16 17 16 16 16 17 16 14 11 8 6 4 4 4 4 3 2 3 3 3 3 3 3 4 6 8 9 10 10 11 12 12 11 11 11 10 9 8 7 5 4 3 3 3 2 2 2 2 3 4 4 5 6 6 6 7 8 8 7 7 7 7 8 9 8 8 9 10 11 11 11 12 12 12
14 15 16 16 15 14 13 11 12 13 13 13 14 14 14 15 16 16 15 13 11 9 6 5 4 4 4 4 5 5 6 7 7 7 8 10 11 12 12 12 12 12 11 9 8 8 8 6 5 4 3 2 2 2 2 2 2 2 2 3 3 3 3 3 3 4 5 5 6 6 6 7 8 9 9 9 9 9 9 9 9 9 9 9 10
15 15 15 14 13 13 13 11 10 11 11 11 11 11 12 13 13 14 14 13 12 11 9 8 7 7 6 6 6 7 7 8 7 8 9 10 11 12 13 12 12 10 8 6 5 6 6 4 2 2 2 3 3 3 3 2 2 1 1 1 1 1 2 3 4 5 5 6 7 7 8 9 9 9 9 9 9 9 9 9 9 8 7 7 8
15 14 14 13 12 13 13 12 11 10 10 9 8 9 10 10 11 12 12 11 11 11 11 10 9 8 7 7 7 7 8 8 8 8 8 8 8 8 8 9 9 8 6 5 4 4 3 3 3 3 3 3 3 2 1 1 1 2 2 2 2 3 4 5 5 5 6 7 7 8 8 8 8 8 8 9 9 9 9 9 9 8 8 7 7
13 13 13 12 11 12 13 13 12 12 12 10 9 8 9 9 9 9 10 10 10 10 10 10 10 8 7 6 6 6 6 7 8 8 7 6 6 4 3 3 4 3 3 3 2 2 2 3 3 3 3 2 1 1 1 2 3 3 3 4 4 5 6 5 5 6 7 7 7 7 7 8 8 9 10 10 10 10 10 11 11 11 11 10 9
11 12 12 10 8 8 10 11 12 13 13 12 11 10 10 9 9 9 9 9 9 9 8 8 9 9 8 6 5 5 4 4 4 5 4 4 3 2 1 2 3 2 2 2 3 3 3 3 2 1 1 1 2 3 4 4 5 5 5 5 6 6 5 5 6 6 7 7 7 8 9 9 10 11 11 11 11 11 11 11 12 13 12 11 11
9 10 10 9 6 6 7 8 9 11 11 12 12 12 11 11 11 11 9 9 9 9 8 8 7 7 7 6 5 4 2 1 0 1 1 2 2 3 4 5 5 5 5 5 5 5 3 1 1 2 3 4 5 6 7 7 7 7 7 6 6 5 5 6 6 7 7 8 9 9 9 10 10 11 11 11 11 12 12 12 13 13 13 12 11
8 10 10 9 7 5 5 6 8 8 8 10 11 12 12 12 12 12 11 10 10 9 9 9 8 6 5 5 5 5 4 3 3 3 3 3 5 6 8 8 8 7 6 6 4 2 1 2 3 4 5 7 8 8 8 8 8 8 7 6 6 6 6 7 7 8 8 8 8 9 9 9 10 10 11 11 11 11 12 12 13 13 13 13 14
7 9 9 9 8 6 5 6 8 7 6 7 9 11 11 12 12 12 12 12 12 11 11 12 10 6 4 4 4 5 5 5 5 6 6 7 8 7 6 7 7 6 5 3 2 3 3 4 6 8 9 9 9 9 8 8 8 7 7 6 6 6 7 7 7 7 7 7 8 8 9 9 10 10 10 10 10 10 11 11 12 12 12 13 14
6 8 9 8 8 7 5 5 7 8 7 7 8 9 10 10 11 12 12 13 14 13 12 12 10 7 5 4 4 4 5 7 7 8 9 10 9 5 2 4 5 4 3 4 5 6 7 8 9 10 9 9 8 8 7 7 6 7 7 7 7 7 7 7 7 7 7 7 8 9 9 10 10 10 9 9 10 10 10 11 11 12 12 12 12
8 9 8 7 8 7 5 4 5 7 7 6 7 8 9 10 11 12 13 13 14 12 11 11 10 8 6 6 6 6 7 8 8 8 9 8 5 2 1 3 4 5 6 8 9 8 8 9 9 9 8 7 7 6 6 5 6 7 8 8 8 8 8 7 7 7 7 7 9 9 10 9 9 9 10 11 11 12 12 11 11 12 13 12 11
10 10 9 7 7 7 5 3 4 7 7 6 7 8 9 10 11 12 13 13 13 12 11 11 11 10 9 9 10 11 10 8 5 3 3 2 1 3 5 7 8 9 10 11 10 8 8 8 8 8 7 6 6 6 6 6 6 7 8 8 8 7 7 7 7 7 7 7 8 9 9 8 8 9 10 11 11 12 12 12 12 12 13 13 12
10 10 9 7 8 8 6 4 4 6 7 7 7 7 8 10 11 12 13 13 12 11 10 10 11 13 12 12 14 14 9 5 6 7 7 8 8 9 10 12 12 12 11 10 9 7 6 7 7 7 6 6 6 6 6 6 7 7 7 7 6 6 6 6 6 5 6 6 6 7 8 8 8 9 10 10 10 11 12 12 11 11 11 12 13
9 10 10 7 6 7 6 4 3 4 6 7 8 8 8 9 10 12 14 13 11 10 9 8 9 13 13 13 12 9 5 9 11 11 12 12 11 11 12 12 11 11 10 9 8 7 7 7 7 6 6 6 7 7 6 5 6 5 5 5 5 5 4 4 3 3 4 5 5 7 8 8 8 9 9 9 10 10 11 11 11 11 10 10 11
9 11 10 6 4 5 5 4 4 5 7 8 9 9 9 9 10 12 13 12 11 9 8 6 8 12 12 11 9 6 6 9 10 10 10 10 10 10 10 10 10 10 9 9 9 8 8 7 6 6 7 8 7 6 5 5 4 4 4 4 4 3 3 2 2 3 4 6 7 7 7 7 7 8 8 9 10 10 9 9 10 11 10 10 11
7 9 8 4 3 4 5 6 7 8 9 9 9 9 8 9 10 11 12 11 10 8 6 5 8 10 10 8 7 6 5 6 8 9 9 8 7 7 7 7 7 8 8 8 8 8 8 7 7 7 7 7 6 4 4 4 4 4 4 4 3 3 4 4 4 5 6 6 6 6 5 5 5 6 8 8 8 8 8 8 9 10 11 10 11
3 5 6 5 4 5 6 8 8 9 9 8 7 7 7 7 9 11 11 11 9 6 4 4 6 6 6 6 6 5 3 3 4 6 7 7 7 6 5 5 5 5 5 6 6 6 7 7 6 6 6 5 5 4 3 3 4 4 4 3 3 3 4 5 5 5 5 5 4 4 4 4 4 5 6 6 7 7 6 6 7 9 10 9 9
1 3 3 5 6 7 7 7 7 8 8 7 5 4 5 6 7 9 11 10 8 6 4 4 5 4 4 6 6 4 1 0 1 2 3 5 6 6 5 5 4 3 2 3 4 4 4 4 5 5 4 4 4 4 4 4 4 3 3 3 3 4 4 4 4 4 4 4 4 4 5 5 5 5 6 6 6 6 5 5 5 7 8 8 8
3 4 4 5 7 7 6 5 5 7 9 8 5 3 4 5 6 8 10 9 7 5 4 4 4 5 5 6 5 3 2 3 2 2 0 1 4 5 5 5 4 3 3 2 2 3 3 3 4 4 3 3 4 4 4 4 4 3 3 3 3 3 3 3 4 4 4 4 4 5 6 7 7 7 7 8 8 7 7 5 4 4 5 6 6
4 4 5 6 7 6 6 5 6 7 9 9 7 5 4 4 6 7 9 9 7 6 6 5 5 4 4 4 4 4 4 4 3 3 2 1 3 4 5 6 4 3 3 2 1 3 3 3 3 3 3 3 3 4 4 4 4 3 3 4 4 3 3 3 3 4 4 5 5 6 7 8 9 9 10 10 11 11 9 8 7 5 4 4 4
5 5 5 6 7 6 6 6 6 8 9 10 9 7 6 5 6 6 7 8 7 6 6 6 5 5 5 4 4 4 4 4 4 4 3 2 2 3 5 7 5 4 3 2 0 3 3 3 3 3 3 4 4 4 4 4 4 4 4 4 4 3 3 2 3 4 5 5 6 7 8 9 10 10 11 12 13 11 10 9 7 5 2 1 2
Wind_Direction
264 265 267 263 254 247 243 240 239 240 239 233 228 226 223 219 215 211 209 209 210 210 207 205 208 210 208 210 209 206 209 211 209 208 209 212 212 211 212 213 212 211 212 214 215 214 216 216 216 215 215 218 221 223 223 223 226 227 228 230 229 229 232 233 237 247 257 237 211 205 210 218 222 224 228 233 238 235 230 229 233 238 242 242 240
277 270 268 266 263 260 255 248 245 245 242 235 228 221 217 213 210 210 209 209 211 212 208 205 208 210 206 207 209 208 209 210 208 208 209 211 214 213 212 213 212 211 212 214 217 216 215 215 216 217 218 221 222 222 223 225 226 226 227 229 228 227 225 227 234 241 248 248 231 213 210 218 226 226 226 233 241 244 243 241 244 249 252 252 248
284 279 279 280 274 268 261 252 250 250 246 240 231 219 213 209 209 211 210 207 207 208 208 208 210 211 208 207 209 209 210 210 209 208 208 210 213 212 213 214 213 212 212 213 215 217 217 217 217 219 221 223 224 223 224 225 228 230 229 228 228 227 225 229 236 237 241 248 246 235 224 221 226 227 228 235 240 243 246 247 252 257 258 257 253
284 272 279 288 281 270 262 253 250 250 246 242 234 221 213 211 212 212 206 201 201 203 208 209 210 211 211 209 209 210 210 210 208 208 209 210 210 212 215 215 214 214 215 214 215 217 220 221 221 221 222 223 224 223 223 225 229 232 232 230 227 227 228 232 234 234 239 245 248 248 243 236 232 229 229 236 240 242 244 243 246 251 252 252 250
296 278 280 289 286 278 274 265 257 252 248 246 240 227 217 214 214 209 202 201 201 202 208 209 206 210 213 211 209 210 210 209 208 208 209 208 208 212 215 215 214 216 216 214 215 218 221 224 225 224 224 224 224 224 224 227 229 232 235 233 229 227 227 228 230 234 238 244 251 252 249 244 240 234 230 234 239 242 243 241 239 240 242 242 242
316 298 291 291 287 286 286 281 275 267 257 251 248 237 225 218 214 207 204 207 205 204 209 209 203 205 210 211 211 211 210 209 210 211 210 208 208 210 212 213 213 215 215 215 216 220 223 225 226 226 227 228 227 226 226 227 227 230 235 235 230 228 227 225 227 232 237 245 253 250 245 243 243 240 233 232 239 245 245 244 239 236 236 236 237
333 318 306 299 292 287 284 281 280 275 263 254 249 241 231 223 215 207 206 210 210 207 207 207 204 204 205 207 209 209 208 208 209 211 211 209 209 208 209 211 212 213 215 216 216 219 222 224 225 226 228 231 231 230 228 226 226 229 234 236 232 231 229 225 225 230 237 244 246 238 237 241 243 244 238 233 237 243 244 245 245 244 244 245 247
344 335 320 307 300 297 292 282 273 267 262 256 250 242 232 222 213 208 209 212 217 214 205 203 212 211 205 204 205 203 203 204 204 205 207 207 208 208 208 210 212 212 212 212 213 215 217 219 222 224 229 234 237 237 232 227 226 229 232 235 233 232 231 227 227 232 238 239 233 227 234 240 240 242 241 234 234 239 242 247 253 256 258 260 261
347 341 331 315 306 302 297 291 279 268 260 253 248 244 234 219 210 210 213 215 221 219 207 207 218 215 208 206 202 197 196 198 197 196 199 202 205 207 209 211 212 211 209 208 208 210 211 212 214 218 225 232 235 237 234 229 227 229 230 232 233 230 226 224 225 228 232 232 227 226 233 238 240 241 240 237 238 244 248 253 259 263 265 267 268
350 344 337 327 315 301 291 289 285 276 269 257 245 240 234 220 210 212 216 219 222 217 211 216 220 215 211 208 200 194 193 194 193 193 194 197 200 204 209 212 212 209 208 207 207 206 206 204 205 211 219 225 225 228 231 229 228 230 230 231 236 233 224 220 224 227 229 230 228 228 232 236 239 241 240 242 248 254 256 257 262 266 266 268 270
357 349 342 335 326 311 292 280 274 270 271 264 248 238 230 218 210 211 214 218 219 214 213 220 220 212 211 208 200 195 194 195 195 196 196 196 198 203 206 208 209 207 207 207 207 206 203 200 202 211 219 220 217 219 224 226 227 231 231 231 238 237 224 217 223 229 230 232 233 234 235 236 239 241 241 244 249 253 257 262 267 269 268 269 270
5 359 352 343 336 325 301 281 272 264 260 260 249 234 220 209 207 211 214 214 214 213 215 218 214 207 206 206 203 199 196 197 196 195 195 197 198 200 200 204 206 206 207 209 210 209 206 204 208 213 216 217 215 218 223 224 223 226 226 224 230 231 222 218 225 231 232 235 239 239 236 237 242 244 244 247 250 253 257 260 264 268 269 271 272
10 8 4 357 349 339 317 291 278 265 254 252 244 227 212 205 206 211 212 210 210 213 214 211 207 204 204 205 205 203 200 197 193 189 189 190 193 194 196 199 202 202 206 209 211 210 209 210 214 214 212 214 218 223 229 230 230 229 222 215 215 218 219 221 228 232 230 231 236 240 240 241 244 243 241 242 245 248 251 253 255 258 262 264 266
10 11 11 9 3 354 339 316 293 272 256 250 240 223 211 207 209 210 207 204 207 210 208 203 203 204 205 206 209 208 203 197 194 191 187 185 187 191 195 198 198 199 202 207 212 214 213 213 215 213 210 211 217 224 230 234 237 235 226 214 208 208 212 215 221 224 221 222 228 234 238 238 236 234 232 233 236 241 245 248 248 249 251 253 256
14 13 14 15 12 6 355 339 317 286 261 250 240 223 212 208 211 210 203 201 205 206 200 198 203 206 208 209 211 211 207 202 200 197 192 188 188 191 197 201 200 198 198 203 209 212 211 210 210 212 214 215 217 222 227 233 237 235 229 222 214 214 211 201 200 207 210 214 219 221 222 224 224 227 231 233 238 242 244 246 248 250 251 252 253
20 19 19 19 18 15 6 351 330 296 261 244 233 221 213 209 209 207 202 200 204 204 200 200 203 206 207 208 209 209 206 203 203 202 198 194 193 196 201 205 204 199 196 198 200 201 200 202 206 212 217 219 221 225 231 238 241 237 233 232 233 232 226 208 202 208 209 212 217 220 223 226 230 235 240 244 249 253 253 253 257 264 267 267 268
25 23 22 21 21 21 17 8 346 304 261 226 207 211 213 212 209 204 201 200 203 204 203 200 199 201 203 202 203 202 199 196 197 199 200 200 200 201 205 208 208 203 199 199 199 198 197 200 206 213 218 223 227 231 234 237 241 243 239 236 239 243 240 230 224 224 226 228 229 231 235 239 243 247 251 254 259 265 268 267 269 272 275 279 282
28 26 24 21 21 24 25 24 15 343 283 204 177 189 203 209 208 204 202 202 202 200 196 192 191 195 197 196 196 196 193 188 188 191 195 200 204 205 206 208 210 208 205 203 204 204 204 205 208 214 221 226 229 231 231 232 236 241 239 233 234 235 232 227 225 226 233 239 240 242 247 252 257 262 266 268 271 275 279 281 282 282 283 286 289
29 29 27 22 20 23 28 32 31 24 10 139 145 151 173 192 201 203 203 202 198 192 187 186 187 188 189 189 189 190 188 183 182 186 190 194 200 204 205 207 210 211 210 207 205 205 207 209 211 215 221 225 226 224 222 221 225 232 234 232 231 226 220 218 217 220 229 237 243 250 255 260 265 269 272 275 277 279 281 283 286 288 290 291 292
28 31 31 27 23 23 30 37 39 39 40 47 73 97 126 160 181 192 196 194 191 184 178 179 182 181 180 183 183 184 184 180 179 186 191 192 195 199 201 204 207 208 208 208 206 204 205 206 208 210 214 217 218 216 214 214 219 225 230 233 234 231 228 229 231 234 241 247 253 258 263 267 270 273 276 278 280 281 282 284 286 288 290 291 292
28 30 33 34 31 26 29 37 43 46 48 53 59 59 71 112 145 162 170 176 180 178 171 170 173 171 170 174 175 174 175 173 169 171 179 185 191 196 199 201 204 205 203 203 203 201 201 201 201 203 206 210 215 217 219 223 226 228 231 237 242 245 247 251 253 256 261 265 270 273 276 277 279 280 281 282 284 285 286 288 289 290 291 292 292
30 31 33 37 38 34 31 34 44 51 52 57 65 67 62 73 103 125 137 148 161 166 164 161 160 156 155 159 163 163 165 167 164 160 163 167 171 181 191 194 198 204 208 208 205 204 203 200 197 198 201 205 212 220 225 229 233 236 239 245 251 255 259 263 266 269 272 274 276 277 278 279 280 281 282 284 286 288 289 290 292 293 293 294 295
31 34 34 36 39 41 39 36 42 53 58 61 66 69 68 64 71 90 105 114 128 142 148 147 145 144 144 147 152 155 159 163 164 165 168 171 173 178 186 191 193 199 209 211 208 208 207 200 193 197 204 209 215 221 224 228 232 236 243 250 256 261 264 265 267 269 270 271 273 274 275 277 279 281 283 285 286 288 290 292 295 297 299 300 302
30 37 39 39 38 40 43 42 43 46 53 62 69 71 71 69 63 67 77 84 89 103 118 127 128 127 129 132 137 144 151 159 167 171 171 173 178 182 186 192 194 192 198 207 209 211 213 207 199 203 212 218 221 222 223 227 232 239 249 257 262 265 267 269 270 271 272 274 275 276 277 279 282 285 287 289 290 292 294 296 299 302 304 306 307
29 36 41 42 40 39 41 45 46 47 47 51 62 71 74 78 77 71 71 72 71 73 84 97 102 102 103 105 109 120 135 150 164 172 173 177 182 184 186 192 195 192 195 205 210 211 213 212 211 212 216 223 231 236 243 251 255 256 259 264 268 271 273 275 275 276 277 278 279 280 281 285 289 292 294 297 299 301 302 302 304 304 304 304 305
31 35 39 43 43 41 42 45 47 49 49 49 52 56 59 67 76 76 73 75 77 75 77 83 86 86 86 85 85 92 104 115 126 143 164 180 189 192 193 196 197 196 197 203 208 209 210 215 221 226 227 232 248 267 276 278 279 280 281 283 284 282 278 275 275 276 277 279 282 284 288 293 297 300 304 306 307 308 309 309 308 308 307 307 308
31 33 37 41 43 42 43 47 49 51 55 55 55 57 56 53 54 55 54 56 59 66 79 92 98 99 98 93 87 87 92 99 102 107 123 148 164 178 189 192 192 194 198 204 207 207 208 211 218 234 254 268 279 284 287 287 288 289 288 283 277 271 267 268 272 276 280 286 291 295 299 303 306 308 310 311 311 313 313 313 314 315 314 314 315
32 34 36 39 44 45 44 46 49 52 58 64 67 70 70 67 63 62 60 55 49 48 54 66 78 86 89 86 80 73 71 73 72 73 77 83 87 95 115 135 150 169 184 195 197 195 206 222 232 248 260 264 264 264 262 260 261 261 260 257 255 258 263 269 274 281 289 295 299 302 305 306 308 310 312 314 316 317 318 319 320 319 318 317 316
32 32 32 35 41 46 47 48 49 50 52 57 65 71 73 75 77 78 80 79 71 60 56 57 63 69 71 71 68 61 54 49 47 51 59 67 78 90 104 121 142 161 169 180 193 198 204 213 217 221 226 228 228 230 232 238 244 247 249 253 257 264 271 277 284 290 294 297 299 302 306 309 312 317 322 324 324 324 325 325 324 324 323 321 320
29 28 29 33 37 41 46 49 50 49 49 50 54 62 68 70 69 69 71 74 77 77 76 77 81 84 75 63 60 54 44 37 36 45 79 124 149 158 153 151 158 164 165 170 180 185 185 185 184 186 192 198 208 222 228 231 236 240 245 254 262 271 280 286 292 294 297 302 308 313 319 325 331 336 340 341 339 337 337 337 335 333 330 326 325
25 27 29 34 37 38 40 43 45 47 50 50 49 52 58 64 64 62 59 58 57 59 67 79 92 101 96 74 69 70 84 112 123 123 132 146 156 160 156 152 153 155 157 162 166 169 173 177 178 179 187 198 207 212 209 211 233 253 268 281 286 292 296 296 299 306 315 322 331 339 349 357 360 358 358 359 358 354 351 348 345 340 334 331 331
16 22 25 27 31 33 35 40 41 41 43 49 53 53 52 54 58 57 54 51 49 50 58 68 79 93 106 116 123 131 137 141 143 144 142 148 156 158 155 153 152 153 159 169 174 173 175 180 184 185 202 227 232 241 258 281 296 302 306 311 311 313 317 318 334 348 352 359 11 16 17 14 11 8 6 3 2 1 358 356 356 351 344 339 340
13 17 20 19 20 24 30 37 40 35 32 35 45 49 47 45 48 51 51 49 46 47 54 62 72 86 100 112 122 126 123 120 124 132 138 147 157 161 160 159 159 160 166 178 187 183 179 186 210 233 258 271 276 284 289 299 326 348 358 8 17 27 26 26 27 27 30 36 34 26 20 17 12 8 7 5 6 9 8 7 7 5 358 353 355
14 14 15 15 18 27 34 37 37 36 33 31 31 35 37 40 46 50 49 46 45 47 51 55 60 72 89 102 106 102 99 101 108 118 129 139 148 157 164 167 166 167 170 178 188 194 203 233 254 261 272 276 276 284 297 348 46 59 69 71 70 66 59 54 51 47 44 41 34 26 22 19 16 16 19 19 18 16 12 9 7 5 4 10 18
13 12 11 12 19 30 36 36 34 31 31 31 29 32 37 43 47 47 42 40 43 47 50 49 46 46 56 77 90 91 92 99 106 115 123 126 128 136 157 178 181 182 187 196 213 244 268 276 269 258 254 249 226 179 139 118 103 94 88 81 74 71 69 65 58 50 43 37 32 29 30 31 31 33 31 26 21 17 14 13 12 10 10 12 16
5 11 12 13 16 23 29 32 29 25 25 24 21 22 26 28 26 24 26 30 34 38 39 36 30 24 22 33 58 76 87 97 107 118 126 128 133 145 182 239 243 244 249 259 283 298 295 284 266 230 197 164 148 142 133 120 110 101 94 86 81 77 73 64 53 46 44 42 43 45 44 42 39 35 31 25 23 23 24 24 22 20 19 17 14
353 4 9 9 3 2 13 20 21 21 23 22 16 11 12 14 13 10 10 16 24 29 26 17 8 1 355 357 7 14 16 20 218 207 207 224 249 257 263 267 265 266 273 284 296 303 297 263 157 129 127 130 133 131 124 115 108 102 97 92 88 81 70 60 54 54 57 58 58 55 50 42 37 33 30 29 30 32 34 35 33 30 29 27 23
347 356 0 358 349 341 351 3 6 9 13 14 12 7 5 8 11 11 7 7 12 17 17 8 356 343 336 339 345 343 333 313 295 285 274 280 292 286 274 266 263 264 272 282 289 288 216 143 124 118 120 122 122 121 116 111 106 101 94 87 80 73 67 65 67 71 72 69 62 53 45 39 36 33 33 35 40 43 43 41 37 33 31 29 27
350 351 351 349 340 333 338 354 1 2 359 359 3 4 2 4 7 7 4 0 358 359 4 5 2 0 3 3 351 335 322 309 303 302 301 307 313 304 275 253 246 247 253 251 207 168 155 140 126 119 117 116 116 115 112 106 99 92 84 74 69 70 74 77 81 82 78 68 59 52 47 40 35 34 38 45 49 49 46 39 33 27 24 23 24
357 351 347 338 330 334 352 9 11 9 1 348 349 355 359 1 1 359 357 355 354 355 1 5 6 13 30 25 354 320 307 303 299 299 305 313 318 314 245 211 216 216 194 162 152 149 145 136 129 124 118 115 113 110 106 98 90 83 80 78 79 83 86 87 86 82 73 64 61 60 56 47 39 40 49 54 50 46 43 39 32 26 21 19 21
343 342 339 322 312 322 342 8 17 16 7 348 340 348 358 3 1 356 352 350 350 352 358 3 4 3 3 360 348 330 320 313 302 297 304 311 314 302 179 175 176 161 145 139 138 137 135 133 131 127 120 113 108 105 100 97 93 90 89 88 86 84 84 83 81 77 70 67 67 66 63 54 47 48 51 48 44 41 38 36 35 31 25 23 23
335 333 326 300 286 296 306 317 357 9 7 354 342 344 354 0 359 353 348 346 345 345 350 359 6 4 358 353 349 342 337 332 320 305 309 320 130 122 110 113 123 129 132 131 128 128 132 135 131 125 118 112 111 110 106 102 100 99 98 94 85 77 73 71 69 69 72 72 68 65 63 58 52 51 47 41 38 37 32 31 34 34 28 27 25
337 337 330 303 280 284 291 295 329 351 356 356 350 343 344 349 349 346 343 340 338 339 342 353 4 4 357 350 347 347 355 38 80 94 100 103 107 107 103 105 114 122 127 129 130 131 133 128 121 118 117 119 121 119 112 104 99 97 98 95 86 74 69 68 67 69 78 79 69 61 60 58 51 45 41 35 31 28 25 25 29 29 23 21 19
337 337 335 316 285 286 294 287 293 322 334 342 344 341 337 338 340 341 339 334 332 334 335 343 0 3 357 351 349 357 57 96 94 95 102 103 103 104 105 106 112 120 127 132 133 128 119 113 112 116 120 123 124 121 113 104 99 95 94 92 85 76 74 81 85 77 78 82 75 65 62 59 49 39 33 28 23 20 20 22 23 22 16 11 10
339 336 335 316 273 284 304 293 279 295 311 323 331 332 329 330 335 338 336 330 327 327 326 336 357 360 356 355 4 29 85 96 88 88 97 99 98 101 106 109 114 120 124 127 125 117 112 113 117 122 125 128 128 124 117 110 106 101 96 93 91 88 88 99 106 89 76 75 74 66 60 56 44 30 23 20 16 14 16 17 16 14 13 11 13
337 344 352 343 270 271 291 295 296 302 307 312 322 328 327 327 333 337 335 329 323 318 316 330 352 359 1 8 19 34 66 84 83 83 84 84 85 91 97 104 115 122 124 125 124 121 121 125 129 132 136 139 140 137 129 123 122 122 118 112 111 110 102 98 96 89 76 68 62 54 45 39 28 15 13 16 12 7 6 4 0 3 8 12 19
329 350 11 15 339 302 289 289 301 314 318 314 318 328 329 325 331 340 342 334 322 311 305 318 340 1 17 16 7 9 36 77 82 76 71 69 71 77 84 92 105 119 127 130 133 133 133 137 142 148 154 159 165 169 165 151 139 135 129 121 117 116 108 98 92 85 74 61 49 36 20 10 1 356 1 8 6 1 358 355 353 356 360 3 13
278 312 343 357 350 334 310 291 293 313 325 320 314 321 321 316 328 348 353 343 324 311 313 326 334 348 2 356 349 346 351 54 26 38 60 64 59 58 63 68 70 77 105 127 140 147 149 152 159 165 168 169 171 175 175 167 159 152 141 130 127 124 113 100 88 80 68 53 36 17 1 352 346 338 335 338 341 344 345 348 353 354 349 347 358
248 273 301 328 336 335 331 319 312 323 329 323 309 301 306 310 328 351 359 354 338 319 312 322 332 337 340 343 341 317 262 266 293 296 244 83 58 49 48 48 43 38 44 73 138 167 171 176 183 186 185 178 170 170 172 172 173 173 160 142 132 124 108 88 73 59 41 26 11 358 349 343 338 330 324 321 322 323 322 320 323 335 336 336 347
265 277 303 319 320 320 328 336 339 342 340 331 316 297 289 301 324 347 359 1 351 328 311 310 317 323 332 344 349 330 302 286 275 261 235 146 83 62 52 46 34 16 18 38 140 180 190 198 201 197 192 183 176 173 175 176 175 169 155 139 125 114 95 69 46 31 18 6 356 348 343 337 331 325 321 317 316 317 314 305 296 295 312 333 349
267 276 298 311 313 311 312 319 327 339 346 343 332 314 295 293 313 337 354 1 357 336 314 305 305 305 310 323 330 319 301 288 271 253 229 169 102 59 45 40 31 16 9 13 118 183 189 202 210 206 194 185 178 174 171 165 156 149 141 129 119 111 95 55 23 7 357 349 344 343 341 337 330 322 316 314 315 316 314 305 295 287 287 339 359
Height
1487 1487 1487 1487 1488 1488 1489 1489 1489 1490 1491 1491 1492 1493 1495 1497 1499 1501 1503 1505 1507 1508 1510 1512 1514 1515 1516 1518 1519 1520 1522 1523 1525 1527 1529 1531 1532 1533 1534 1536 1537 1539 1540 1542 1543 1545 1546 1548 1550 1551 1553 1554 1556 1557 1558 1559 1561 1562 1563 1564 1565 1567 1568 1569 1570 1571 1572 1573 1573 1574 1575 1575 1576 1576 1577 1578 1578 1579 1579 1580 1580 1581 1581 1582 1582
1485 1485 1486 1486 1487 1487 1487 1488 1488 1489 1490 1490 1491 1492 1494 1496 1498 1500 1502 1504 1506 1507 1508 1510 1512 1514 1515 1517 1519 1520 1521 1523 1524 1526 1527 1529 1530 1531 1532 1534 1535 1537 1538 1540 1541 1543 1545 1546 1548 1550 1551 1553 1554 1556 1557 1558 1559 1560 1561 1562 1564 1565 1566 1568 1569 1570 1571 1571 1572 1573 1573 1574 1575 1575 1576 1577 1577 1578 1578 1579 1579 1580 1580 1581 1581
1484 1484 1485 1485 1485 1485 1486 1486 1486 1487 1488 1489 1490 1491 1493 1494 1496 1498 1500 1502 1504 1506 1507 1509 1510 1512 1514 1516 1518 1519 1521 1522 1523 1525 1526 1527 1528 1530 1531 1532 1534 1535 1536 1538 1540 1541 1543 1544 1546 1548 1549 1551 1553 1554 1555 1557 1558 1559 1559 1561 1562 1563 1565 1566 1567 1568 1569 1570 1571 1571 1572 1572 1573 1574 1575 1576 1576 1577 1577 1578 1578 1579 1579 1579 1580
1484 1484 1484 1484 1484 1484 1484 1485 1485 1485 1486 1487 1489 1491 1492 1494 1495 1496 1498 1500 1501 1503 1506 1507 1509 1511 1513 1515 1517 1518 1520 1521 1522 1524 1525 1526 1527 1528 1530 1531 1532 1534 1535 1536 1538 1539 1541 1542 1544 1546 1548 1549 1551 1552 1554 1555 1556 1557 1558 1559 1561 1562 1563 1565 1566 1567 1567 1568 1569 1570 1571 1571 1572 1573 1574 1575 1575 1575 1576 1576 1577 1577 1578 1578 1578
1483 1483 1484 1484 1483 1483 1483 1483 1483 1484 1485 1486 1489 1490 1491 1493 1494 1495 1497 1498 1499 1502 1505 1506 1508 1510 1512 1514 1515 1517 1518 1520 1521 1522 1524 1525 1526 1527 1528 1530 1531 1532 1533 1535 1536 1538 1539 1541 1543 1545 1546 1547 1548 1550 1551 1553 1554 1555 1555 1557 1559 1560 1561 1563 1564 1565 1566 1566 1567 1568 1569 1570 1570 1571 1572 1573 1574 1574 1574 1575 1575 1576 1576 1577 1577
1483 1483 1483 1483 1482 1482 1482 1482 1482 1483 1484 1487 1489 1491 1492 1492 1493 1495 1497 1497 1498 1501 1504 1505 1506 1508 1510 1512 1514 1516 1517 1518 1520 1521 1522 1523 1525 1526 1527 1528 1529 1531 1532 1533 1535 1536 1538 1539 1541 1543 1544 1545 1546 1548 1549 1551 1552 1553 1553 1554 1556 1558 1559 1560 1562 1563 1564 1564 1565 1566 1566 1567 1568 1569 1570 1571 1572 1572 1573 1573 1574 1574 1575 1575 1575
1482 1482 1482 1481 1481 1480 1480 1481 1481 1482 1483 1485 1487 1488 1490 1492 1493 1495 1497 1496 1497 1499 1501 1503 1506 1507 1509 1511 1513 1515 1516 1517 1518 1519 1521 1522 1523 1524 1526 1527 1528 1529 1531 1532 1533 1535 1536 1538 1540 1541 1542 1543 1545 1546 1547 1548 1549 1550 1551 1552 1554 1555 1557 1558 1559 1561 1562 1562 1563 1563 1564 1565 1567 1567 1568 1570 1570 1571 1571 1572 1572 1573 1573 1573 1574
1482 1481 1480 1479 1479 1478 1479 1480 1480 1481 1482 1483 1484 1485 1487 1490 1492 1495 1496 1496 1497 1498 1499 1503 1505 1507 1509 1510 1512 1513 1514 1516 1517 1518 1519 1521 1522 1523 1525 1526 1527 1528 1530 1531 1533 1534 1536 1537 1538 1539 1541 1542 1543 1544 1545 1546 1548 1549 1550 1550 1551 1553 1554 1556 1557 1558 1559 1560 1561 1561 1562 1563 1564 1565 1566 1567 1568 1568 1569 1570 1570 1571 1571 1572 1572
1481 1480 1479 1478 1477 1476 1477 1477 1478 1479 1480 1480 1481 1483 1485 1487 1489 1493 1495 1496 1497 1498 1499 1501 1503 1505 1508 1509 1510 1512 1513 1514 1515 1517 1518 1519 1521 1522 1524 1525 1526 1528 1529 1530 1532 1533 1535 1536 1537 1538 1539 1540 1541 1542 1544 1545 1546 1547 1548 1549 1550 1551 1552 1553 1554 1556 1557 1558 1558 1559 1560 1561 1562 1563 1564 1565 1565 1566 1567 1568 1568 1568 1570 1570 1570
1480 1478 1477 1476 1475 1474 1474 1474 1475 1477 1477 1478 1479 1480 1483 1485 1487 1490 1493 1495 1497 1499 1500 1500 1501 1504 1506 1508 1509 1510 1512 1513 1515 1516 1517 1518 1520 1521 1522 1524 1525 1526 1528 1529 1531 1532 1533 1534 1536 1537 1538 1538 1539 1540 1542 1543 1544 1545 1546 1547 1548 1549 1550 1551 1552 1553 1554 1555 1556 1557 1558 1559 1560 1561 1562 1563 1563 1564 1565 1565 1566 1566 1567 1567 1567
1482 1478 1476 1474 1473 1472 1471 1471 1472 1473 1474 1476 1476 1477 1480 1482 1484 1487 1490 1494 1496 1498 1498 1499 1501 1502 1505 1507 1508 1509 1510 1512 1514 1515 1516 1517 1519 1520 1521 1522 1524 1525 1526 1528 1529 1531 1532 1533 1534 1535 1536 1537 1538 1539 1540 1541 1542 1543 1545 1546 1546 1547 1548 1549 1550 1551 1551 1552 1553 1554 1555 1557 1558 1559 1560 1561 1562 1562 1563 1563 1563 1564 1565 1565 1565
1483 1480 1476 1473 1471 1469 1468 1467 1469 1470 1471 1472 1473 1475 1477 1479 1481 1484 1488 1492 1494 1496 1497 1498 1500 1502 1504 1506 1507 1508 1510 1511 1512 1514 1515 1517 1518 1519 1520 1521 1522 1524 1525 1526 1528 1529 1530 1531 1533 1534 1535 1535 1536 1537 1538 1539 1540 1542 1543 1544 1545 1545 1545 1546 1547 1548 1549 1550 1551 1552 1553 1555 1556 1557 1558 1559 1560 1560 1561 1561 1561 1561 1562 1562 1562
1485 1482 1478 1474 1470 1468 1465 1465 1465 1467 1468 1469 1470 1472 1475 1477 1479 1482 1485 1489 1492 1493 1494 1496 1498 1501 1503 1505 1506 1507 1508 1510 1511 1513 1514 1516 1518 1519 1520 1521 1522 1523 1524 1525 1526 1527 1528 1530 1532 1533 1534 1535 1536 1536 1537 1538 1540 1541 1542 1542 1543 1544 1544 1544 1545 1546 1548 1549 1550 1551 1552 1553 1554 1555 1556 1556 1557 1557 1558 1558 1558 1559 1559 1559 1559
1486 1483 1479 1475 1471 1467 1465 1463 1463 1464 1465 1466 1468 1470 1473 1475 1477 1479 1483 1486 1489 1491 1492 1494 1497 1500 1502 1504 1505 1506 1508 1509 1510 1512 1514 1515 1517 1518 1519 1520 1521 1522 1523 1524 1525 1526 1528 1529 1531 1532 1534 1534 1535 1536 1537 1538 1539 1541 1541 1541 1541 1542 1542 1543 1543 1544 1545 1546 1548 1549 1550 1551 1552 1553 1553 1554 1554 1555 1555 1555 1555 1555 1556 1556 1557
1488 1485 1481 1477 1473 1468 1465 1463 1462 1462 1462 1464 1466 1468 1471 1473 1475 1478 1481 1484 1487 1488 1490 1492 1496 1499 1501 1502 1504 1505 1507 1508 1509 1511 1512 1514 1516 1517 1518 1519 1520 1521 1522 1523 1524 1526 1527 1528 1530 1532 1533 1534 1535 1536 1536 1537 1538 1540 1541 1542 1541 1541 1541 1541 1542 1543 1544 1545 1546 1547 1548 1549 1550 1551 1552 1552 1553 1553 1553 1553 1553 1553 1553 1554 1554
1490 1487 1484 1480 1476 1471 1467 1464 1462 1461 1461 1462 1465 1468 1469 1470 1473 1475 1479 1482 1485 1486 1488 1490 1493 1497 1499 1500 1502 1504 1505 1507 1508 1509 1511 1512 1514 1516 1517 1518 1519 1520 1521 1523 1524 1525 1526 1527 1529 1531 1532 1533 1534 1535 1536 1537 1538 1538 1539 1540 1540 1540 1540 1541 1542 1542 1543 1544 1545 1546 1547 1548 1549 1550 1551 1551 1551 1551 1551 1551 1551 1551 1551 1551 1551
1493 1490 1487 1483 1480 1476 1471 1467 1464 1462 1461 1461 1463 1466 1466 1467 1470 1474 1476 1479 1482 1485 1487 1489 1492 1495 1497 1498 1500 1502 1503 1505 1506 1508 1510 1511 1513 1515 1516 1517 1518 1520 1521 1522 1523 1524 1525 1527 1528 1530 1531 1533 1534 1535 1535 1536 1537 1537 1538 1539 1539 1539 1540 1541 1541 1542 1543 1544 1545 1545 1546 1547 1548 1549 1549 1550 1550 1549 1549 1549 1549 1549 1549 1549 1549
1495 1493 1490 1487 1484 1481 1476 1472 1467 1465 1462 1461 1461 1463 1464 1465 1468 1472 1474 1477 1480 1483 1486 1488 1490 1493 1495 1497 1499 1501 1502 1503 1504 1506 1508 1510 1512 1513 1514 1516 1517 1519 1520 1521 1522 1524 1525 1526 1528 1529 1530 1532 1533 1534 1535 1535 1536 1536 1537 1537 1538 1538 1539 1540 1540 1541 1542 1543 1544 1544 1545 1545 1546 1546 1547 1547 1547 1547 1547 1547 1546 1546 1546 1546 1546
1499 1496 1494 1491 1488 1485 1481 1478 1473 1469 1466 1464 1463 1464 1465 1465 1467 1470 1473 1475 1478 1481 1484 1486 1488 1491 1493 1495 1497 1499 1500 1501 1503 1505 1507 1509 1510 1512 1513 1514 1516 1518 1519 1520 1522 1523 1525 1526 1527 1528 1529 1531 1532 1533 1534 1535 1535 1536 1536 1537 1537 1538 1539 1539 1540 1540 1541 1542 1543 1543 1543 1544 1544 1545 1545 1545 1545 1545 1545 1544 1544 1544 1543 1543 1542
1503 1500 1498 1495 1492 1489 1486 1483 1480 1475 1472 1469 1468 1469 1470 1467 1467 1468 1471 1474 1476 1479 1482 1484 1486 1489 1491 1493 1495 1497 1498 1500 1502 1504 1506 1507 1509 1510 1512 1513 1515 1517 1518 1519 1521 1522 1524 1525 1526 1527 1528 1529 1531 1532 1533 1534 1535 1535 1535 1536 1537 1537 1538 1539 1539 1540 1540 1541 1542 1542 1543 1543 1543 1543 1543 1543 1542 1542 1542 1542 1541 1541 1540 1540 1539
1506 1504 1501 1498 1495 1492 1490 1488 1485 1482 1479 1475 1473 1476 1478 1474 1470 1469 1471 1474 1475 1478 1481 1483 1484 1486 1488 1490 1492 1495 1497 1500 1502 1504 1505 1507 1508 1509 1511 1513 1514 1516 1517 1518 1520 1521 1522 1524 1525 1526 1527 1529 1530 1531 1532 1533 1534 1534 1535 1535 1536 1537 1537 1538 1538 1539 1539 1540 1540 1540 1541 1541 1541 1541 1540 1540 1540 1539 1539 1539 1538 1538 1537 1537 1536
1509 1507 1504 1501 1498 1495 1493 1491 1489 1488 1486 1482 1479 1481 1486 1484 1479 1475 1475 1476 1476 1477 1481 1484 1484 1485 1486 1488 1491 1494 1496 1499 1502 1504 1505 1506 1508 1509 1510 1512 1514 1515 1517 1518 1519 1520 1521 1522 1523 1525 1526 1528 1529 1530 1531 1532 1533 1533 1534 1535 1535 1536 1537 1537 1537 1537 1537 1538 1538 1538 1538 1538 1538 1538 1538 1538 1537 1537 1537 1536 1536 1535 1534 1534 1533
1512 1509 1507 1504 1501 1499 1496 1494 1492 1491 1490 1488 1486 1486 1489 1490 1489 1486 1483 1482 1481 1480 1482 1486 1487 1487 1488 1488 1490 1493 1496 1498 1501 1504 1505 1505 1507 1509 1510 1511 1513 1515 1517 1518 1519 1520 1521 1521 1522 1524 1525 1526 1528 1529 1530 1531 1531 1532 1533 1534 1534 1535 1535 1536 1536 1536 1536 1536 1536 1536 1536 1536 1536 1536 1536 1536 1535 1535 1535 1534 1533 1533 1532 1531 1531
1514 1512 1509 1507 1505 1503 1500 1498 1496 1494 1493 1492 1492 1491 1491 1491 1493 1494 1493 1491 1489 1486 1485 1488 1490 1490 1490 1490 1492 1493 1495 1498 1501 1503 1504 1505 1506 1508 1509 1511 1513 1514 1515 1517 1518 1519 1520 1521 1521 1522 1523 1524 1526 1528 1528 1529 1530 1531 1532 1532 1533 1533 1534 1534 1534 1534 1534 1534 1534 1534 1534 1534 1534 1533 1533 1533 1533 1532 1532 1532 1531 1530 1529 1529 1528
1516 1514 1512 1510 1508 1506 1504 1502 1500 1498 1497 1496 1495 1495 1494 1494 1495 1497 1498 1497 1495 1493 1491 1491 1492 1492 1492 1493 1493 1494 1496 1498 1501 1503 1504 1505 1506 1507 1509 1511 1512 1513 1514 1516 1517 1518 1519 1520 1520 1521 1521 1523 1525 1526 1527 1528 1529 1530 1531 1531 1531 1532 1532 1533 1533 1532 1533 1533 1532 1532 1532 1531 1531 1531 1531 1531 1530 1530 1529 1529 1528 1528 1527 1526 1526
1519 1516 1514 1512 1511 1509 1508 1506 1504 1503 1501 1500 1499 1498 1498 1497 1497 1499 1500 1500 1499 1498 1497 1496 1495 1495 1495 1496 1496 1497 1498 1500 1502 1503 1504 1505 1506 1508 1509 1510 1511 1512 1513 1515 1516 1517 1518 1519 1519 1520 1520 1521 1523 1525 1526 1527 1528 1528 1529 1529 1530 1531 1531 1532 1532 1531 1531 1531 1531 1531 1530 1530 1529 1529 1529 1529 1528 1527 1526 1525 1525 1524 1523 1523 1522
1521 1519 1517 1516 1514 1512 1511 1509 1508 1506 1505 1504 1503 1502 1501 1501 1500 1501 1502 1502 1501 1500 1499 1498 1498 1498 1498 1499 1500 1501 1501 1502 1503 1504 1505 1507 1508 1509 1510 1511 1511 1512 1513 1514 1515 1516 1517 1518 1519 1519 1520 1521 1522 1523 1525 1526 1526 1527 1528 1528 1529 1530 1531 1531 1531 1530 1530 1530 1529 1529 1528 1528 1528 1528 1527 1526 1525 1524 1523 1522 1522 1521 1520 1519 1519
1523 1522 1520 1519 1517 1515 1514 1513 1511 1510 1509 1507 1507 1506 1505 1505 1505 1504 1504 1504 1504 1502 1501 1501 1500 1501 1501 1501 1502 1503 1503 1504 1505 1506 1508 1509 1509 1510 1510 1511 1511 1512 1514 1515 1516 1517 1518 1518 1519 1519 1520 1521 1522 1523 1525 1526 1526 1527 1528 1528 1529 1530 1530 1530 1529 1529 1528 1528 1527 1527 1527 1527 1526 1526 1525 1524 1523 1522 1521 1520 1519 1519 1518 1517 1517
1525 1524 1523 1521 1520 1519 1518 1516 1515 1513 1512 1511 1510 1509 1509 1508 1508 1508 1507 1507 1506 1505 1504 1503 1503 1504 1504 1504 1505 1505 1506 1507 1508 1509 1510 1511 1511 1511 1511 1511 1511 1512 1514 1516 1517 1517 1518 1519 1519 1520 1521 1522 1523 1524 1525 1526 1526 1527 1527 1528 1528 1528 1528 1528 1527 1527 1527 1526 1526 1526 1526 1525 1525 1524 1524 1523 1522 1521 1520 1519 1518 1517 1516 1516 1515
1527 1526 1525 1523 1522 1521 1520 1519 1518 1517 1515 1514 1513 1512 1511 1511 1510 1510 1509 1509 1508 1508 1507 1506 1506 1506 1506 1506 1507 1508 1508 1509 1510 1511 1512 1512 1512 1512 1512 1512 1513 1514 1515 1516 1517 1518 1518 1519 1520 1521 1522 1523 1524 1525 1525 1526 1526 1526 1526 1527 1527 1527 1526 1526 1526 1526 1525 1525 1525 1524 1524 1524 1523 1523 1522 1522 1521 1520 1519 1518 1517 1516 1515 1514 1514
1529 1528 1526 1525 1524 1523 1523 1522 1521 1520 1518 1517 1516 1515 1515 1514 1513 1512 1512 1511 1511 1510 1509 1509 1508 1508 1508 1508 1509 1509 1510 1510 1512 1513 1514 1514 1514 1514 1514 1514 1515 1516 1516 1517 1518 1518 1519 1520 1521 1522 1523 1524 1525 1525 1525 1525 1525 1525 1525 1525 1525 1525 1525 1525 1525 1525 1524 1524 1523 1523 1523 1523 1522 1522 1522 1521 1520 1519 1518 1517 1516 1515 1514 1513 1513
1530 1529 1528 1527 1526 1525 1524 1524 1523 1522 1521 1520 1519 1519 1518 1517 1516 1516 1515 1515 1514 1513 1512 1512 1511 1511 1511 1511 1511 1511 1512 1512 1513 1514 1515 1515 1515 1515 1516 1516 1517 1517 1518 1518 1518 1519 1520 1521 1522 1523 1524 1524 1524 1525 1525 1525 1524 1524 1524 1524 1524 1524 1524 1524 1524 1524 1524 1523 1523 1523 1523 1522 1522 1521 1521 1520 1519 1519 1518 1517 1516 1515 1514 1513 1512
1531 1530 1529 1528 1527 1526 1526 1525 1525 1524 1523 1522 1522 1521 1520 1519 1519 1518 1518 1517 1517 1516 1515 1514 1514 1514 1513 1513 1513 1513 1514 1514 1515 1515 1516 1516 1516 1516 1517 1517 1518 1518 1519 1519 1519 1519 1520 1521 1522 1523 1523 1524 1524 1524 1524 1524 1523 1523 1523 1523 1523 1523 1523 1523 1523 1523 1523 1523 1523 1523 1522 1522 1521 1521 1520 1520 1519 1518 1517 1516 1516 1515 1514 1514 1513
1532 1531 1530 1529 1528 1527 1527 1526 1526 1525 1525 1524 1523 1523 1522 1521 1521 1520 1519 1519 1518 1518 1517 1516 1516 1516 1515 1515 1515 1515 1515 1516 1516 1516 1517 1517 1517 1517 1518 1518 1518 1518 1519 1519 1519 1520 1520 1521 1522 1522 1523 1523 1523 1523 1523 1523 1523 1523 1523 1523 1523 1523 1523 1523 1523 1523 1523 1523 1523 1522 1522 1522 1521 1520 1520 1519 1518 1518 1517 1516 1516 1515 1515 1514 1513
1533 1532 1531 1530 1529 1528 1528 1527 1527 1526 1526 1525 1525 1524 1524 1523 1522 1522 1521 1521 1520 1519 1518 1518 1518 1517 1517 1517 1516 1516 1517 1517 1517 1517 1517 1517 1518 1518 1518 1518 1518 1518 1519 1519 1519 1520 1520 1521 1521 1522 1522 1522 1522 1522 1522 1522 1522 1522 1522 1522 1522 1523 1523 1523 1524 1524 1523 1523 1523 1522 1522 1521 1521 1520 1519 1519 1518 1518 1517 1516 1516 1515 1514 1514 1513
1534 1533 1532 1531 1530 1529 1529 1528 1528 1527 1527 1526 1526 1525 1525 1524 1524 1523 1522 1522 1521 1520 1520 1519 1519 1519 1518 1518 1518 1518 1518 1518 1518 1518 1518 1518 1518 1518 1518 1518 1518 1519 1519 1519 1519 1520 1520 1520 1521 1521 1521 1521 1522 1522 1522 1522 1522 1522 1522 1522 1522 1523 1523 1524 1524 1523 1523 1523 1522 1522 1521 1521 1520 1520 1519 1519 1518 1518 1517 1517 1516 1515 1515 1514 1513
1534 1533 1533 1532 1531 1530 1530 1529 1529 1529 1528 1527 1527 1526 1525 1525 1524 1523 1523 1522 1522 1521 1521 1520 1520 1519 1519 1519 1519 1519 1519 1518 1518 1518 1518 1518 1518 1518 1518 1518 1518 1518 1518 1518 1519 1519 1519 1520 1520 1521 1521 1521 1521 1522 1522 1522 1522 1522 1522 1523 1523 1524 1524 1524 1524 1523 1523 1523 1522 1522 1521 1521 1520 1520 1520 1519 1519 1518 1518 1517 1517 1516 1515 1515 1514
1535 1534 1533 1533 1532 1531 1531 1530 1530 1529 1529 1529 1528 1527 1526 1526 1525 1524 1523 1522 1522 1522 1521 1521 1520 1519 1519 1518 1518 1518 1518 1518 1518 1518 1518 1518 1517 1517 1517 1516 1516 1517 1517 1518 1518 1518 1519 1519 1520 1521 1521 1522 1522 1522 1522 1522 1522 1522 1523 1523 1524 1524 1524 1524 1524 1524 1523 1523 1523 1522 1522 1521 1521 1521 1520 1520 1520 1519 1519 1518 1517 1517 1516 1515 1514
1535 1535 1534 1533 1532 1532 1532 1531 1531 1530 1530 1529 1529 1528 1527 1527 1526 1525 1524 1523 1522 1521 1521 1520 1520 1519 1518 1518 1518 1517 1517 1517 1517 1516 1516 1516 1516 1515 1515 1515 1515 1516 1517 1517 1518 1518 1519 1520 1520 1521 1522 1522 1522 1522 1522 1522 1522 1523 1523 1524 1524 1524 1524 1524 1524 1524 1524 1523 1523 1523 1522 1522 1522 1521 1521 1521 1521 1520 1519 1519 1518 1517 1516 1515 1514
1536 1535 1535 1534 1533 1533 1533 1532 1532 1531 1530 1530 1529 1529 1528 1527 1527 1526 1525 1524 1523 1522 1521 1520 1520 1519 1519 1518 1518 1517 1517 1516 1516 1515 1515 1515 1514 1514 1514 1514 1515 1515 1516 1517 1518 1519 1520 1520 1521 1522 1522 1523 1523 1523 1523 1523 1523 1523 1524 1524 1524 1525 1525 1525 1524 1524 1524 1524 1523 1523 1523 1523 1522 1522 1522 1522 1521 1521 1520 1519 1518 1517 1516 1515 1514
1537 1536 1535 1535 1534 1533 1533 1533 1532 1532 1531 1530 1530 1529 1529 1528 1527 1526 1525 1525 1524 1523 1522 1521 1520 1520 1519 1519 1518 1518 1517 1516 1515 1515 1514 1514 1514 1513 1514 1514 1515 1515 1516 1517 1518 1519 1520 1521 1522 1522 1523 1523 1523 1523 1523 1523 1524 1524 1525 1525 1525 1525 1525 1525 1524 1524 1524 1524 1524 1524 1524 1524 1524 1523 1523 1522 1522 1521 1520 1519 1518 1517 1516 1515 1514
1537 1536 1536 1535 1534 1534 1534 1533 1532 1532 1531 1531 1530 1530 1529 1529 1528 1527 1526 1525 1524 1523 1523 1522 1521 1520 1520 1519 1518 1517 1516 1515 1515 1514 1514 1514 1514 1514 1514 1515 1515 1516 1517 1518 1519 1520 1521 1522 1522 1523 1523 1523 1523 1523 1524 1524 1524 1525 1525 1525 1525 1525 1525 1524 1524 1524 1524 1524 1525 1525 1525 1525 1524 1524 1523 1522 1522 1521 1520 1519 1519 1518 1517 1516 1515
1537 1536 1535 1535 1534 1534 1533 1533 1533 1532 1532 1532 1531 1530 1530 1529 1528 1528 1527 1526 1525 1524 1523 1523 1522 1521 1520 1519 1519 1518 1517 1515 1515 1515 1515 1515 1515 1515 1516 1516 1517 1518 1518 1519 1520 1521 1522 1522 1523 1523 1524 1524 1524 1524 1524 1525 1525 1525 1525 1525 1525 1525 1524 1524 1525 1525 1525 1526 1526 1526 1526 1525 1524 1524 1523 1523 1522 1521 1520 1520 1519 1518 1518 1517 1516
1538 1537 1536 1535 1534 1534 1534 1533 1533 1533 1532 1532 1531 1531 1530 1530 1529 1528 1527 1526 1526 1525 1524 1524 1523 1522 1521 1520 1519 1518 1518 1517 1517 1517 1517 1517 1517 1517 1518 1518 1519 1519 1520 1521 1521 1522 1522 1523 1523 1524 1524 1524 1525 1525 1525 1525 1525 1525 1525 1525 1525 1525 1525 1525 1525 1526 1526 1526 1526 1526 1525 1525 1524 1524 1523 1523 1522 1521 1521 1520 1520 1519 1519 1518 1518
1538 1537 1536 1535 1534 1534 1534 1534 1533 1533 1533 1532 1532 1531 1531 1530 1530 1529 1528 1527 1526 1525 1525 1525 1524 1523 1523 1522 1520 1520 1520 1519 1519 1519 1519 1519 1519 1520 1520 1520 1520 1521 1521 1522 1522 1522 1523 1523 1524 1524 1525 1525 1525 1525 1525 1525 1525 1525 1525 1525 1525 1525 1526 1526 1526 1526 1526 1526 1526 1525 1525 1525 1524 1524 1523 1523 1522 1522 1521 1521 1520 1520 1519 1519 1518
1538 1537 1536 1535 1535 1535 1534 1534 1533 1533 1533 1532 1532 1531 1531 1531 1530 1529 1528 1527 1527 1526 1525 1525 1525 1524 1523 1523 1522 1522 1521 1521 1521 1521 1521 1521 1521 1521 1521 1521 1522 1522 1522 1523 1523 1523 1524 1524 1525 1525 1525 1525 1525 1525 1525 1525 1525 1525 1526 1526 1526 1526 1526 1526 1526 1526 1526 1526 1525 1525 1525 1525 1524 1524 1523 1523 1522 1522 1522 1521 1521 1521 1520 1520 1519
1538 1538 1537 1536 1536 1535 1535 1534 1534 1533 1533 1532 1532 1531 1531 1531 1530 1530 1529 1527 1527 1526 1526 1526 1525 1525 1524 1524 1523 1523 1523 1523 1522 1522 1522 1522 1522 1522 1522 1523 1523 1523 1523 1524 1524 1524 1525 1525 1526 1526 1526 1526 1526 1525 1525 1525 1525 1526 1526 1526 1526 1526 1526 1526 1526 1526 1526 1526 1525 1525 1525 1524 1524 1524 1523 1523 1523 1522 1522 1522 1522 1521 1521 1520 1520
1538 1538 1537 1537 1536 1535 1535 1534 1534 1533 1533 1532 1532 1531 1531 1531 1531 1530 1529 1528 1527 1527 1526 1526 1526 1525 1525 1525 1524 1524 1524 1524 1524 1524 1524 1524 1523 1523 1524 1524 1524 1524 1524 1525 1525 1525 1525 1525 1526 1526 1526 1525 1525 1525 1525 1525 1525 1525 1526 1526 1526 1526 1526 1526 1526 1526 1526 1525 1525 1525 1524 1524 1524 1524 1523 1523 1523 1522 1522 1522 1522 1522 1521 1521 1520
1538 1537 1537 1537 1536 1535 1535 1534 1534 1533 1533 1532 1532 1531 1531 1531 1530 1530 1529 1528 1527 1527 1527 1526 1526 1526 1526 1526 1525 1525 1525 1525 1525 1525 1525 1525 1525 1525 1525 1525 1525 1525 1525 1525 1525 1525 1525 1525 1525 1525 1525 1525 1525 1525 1525 1525 1525 1526 1526 1526 1526 1526 1526 1526 1526 1526 1525 1525 1525 1525 1524 1524 1524 1523 1523 1523 1522 1522 1522 1522 1522 1522 1521 1521 1521
1537 1537 1537 1536 1536 1536 1535 1534 1534 1533 1533 1532 1531 1531 1530 1530 1530 1530 1529 1528 1528 1527 1527 1527 1527 1527 1526 1526 1526 1525 1525 1525 1525 1525 1525 1525 1525 1525 1525 1525 1525 1525 1525 1525 1525 1525 1525 1525 1525 1524 1524 1525 1525 1525 1525 1525 1525 1525 1526 1526 1526 1526 1526 1526 1526 1525 1525 1525 1525 1525 1524 1524 1523 1523 1523 1522 1522 1521 1521 1521 1521 1521 1521 1521 1521
1537 1537 1536 1536 1536 1535 1535 1534 1534 1533 1533 1532 1531 1531 1530 1530 1530 1530 1529 1528 1528 1528 1527 1527 1527 1527 1526 1526 1526 1526 1525 1525 1526 1526 1526 1526 1526 1526 1526 1525 1525 1525 1525 1525 1525 1525 1525 1525 1524 1524 1524 1524 1524 1525 1525 1525 1525 1525 1525 1525 1526 1526 1526 1526 1526 1525 1525 1525 1525 1524 1524 1524 1523 1523 1522 1521 1521 1520 1520 1520 1520 1520 1521 1521 1521